Tracking 35334 objects as of 13-Sep-2026
HD Live streaming from Space Station
objects crossing your sky now

THORAD AGENA D DEB


THORAD AGENA D DEB is no longer on orbit


NORAD ID: 4605
Int'l Code: 1970-025H
Launch date: April 8, 1970
Source: United States (US)
Launch site: AIR FORCE WESTERN TEST RANGE (AFWTR)
Decay date: 1986-08-11

Note: This is SATELLITE DEBRIS
Your satellite tracking list
Your tracking list is empty




NASA's NSSDC Master Catalog

Two Line Element Set (TLE):
1 04605U 70025H   86221.77513155  .02498849 +17189-5 +35925-2 0  9993
2 04605 099.3504 135.1019 0016575 177.0259 183.1391 16.05067657858383
Source of the keplerian elements: AFSPC